Location: *
(46.4000°N, 12.6667°E)
Time: 21:26:17
(UTC+00:00)

SL-16 R/B - Pass Details

Date: 09 April 2020
Orbit: 842 x 846 km, 71.0° (Epoch: 25 May)

Event Time Altitude Azimuth Distance (km) Brightness Sun altitude
Rises 23:13:47 0° 327° (NNW) 3,415 6.1 -35.6°
Reaches altitude 10° 23:16:23 10° 319° (NW) 2,476 5.1 -35.6°
Enters shadow 23:18:36 22° 306° (NW) 1,763 4.1 -35.5°
